Time,TemperatureF,DewpointF,PressureIn,WindDirection,WindDirectionDegrees,WindSpeedMPH,WindSpeedGustMPH,Humidity,HourlyPrecipIn,Conditions,Clouds,dailyrainin,SoftwareType,DateUTC
2013-08-07 00:33:00,82.0,-99.9,-100.00,West,261,4.0,7.0,-999,-99.99,,,-99.99,,2013-08-07 07:33:00,
2013-08-07 00:44:00,82.0,-99.9,-100.00,West,261,4.0,7.0,-999,-99.99,,,-99.99,,2013-08-07 07:44:00,
2013-08-07 00:53:00,82.0,-99.9,-100.00,SSW,203,3.0,6.0,-999,-99.99,,,-99.99,,2013-08-07 07:53:00,
2013-08-07 01:02:00,81.0,-99.9,-100.00,South,190,10.0,11.0,-999,-99.99,,,-99.99,,2013-08-07 08:02:00,
2013-08-07 01:11:00,81.0,-99.9,-100.00,South,190,10.0,11.0,-999,-99.99,,,-99.99,,2013-08-07 08:11:00,
2013-08-07 01:22:00,81.0,-99.9,-100.00,South,190,10.0,11.0,-999,-99.99,,,-99.99,,2013-08-07 08:22:00,
2013-08-07 01:40:00,82.0,-99.9,-100.00,South,178,4.0,12.0,-999,-99.99,,,-99.99,,2013-08-07 08:40:00,
2013-08-07 01:44:00,82.0,-99.9,-100.00,North,355,3.0,3.0,-999,-99.99,,,-99.99,,2013-08-07 08:44:00,
2013-08-07 01:53:00,81.0,-99.9,-100.00,North,7,3.0,5.0,-999,-99.99,,,-99.99,,2013-08-07 08:53:00,
2013-08-07 02:02:00,81.0,-99.9,-100.00,North,7,3.0,5.0,-999,-99.99,,,-99.99,,2013-08-07 09:02:00,
2013-08-07 04:20:00,78.0,-99.9,-100.00,SSW,193,7.0,7.0,-999,-99.99,,,-99.99,,2013-08-07 11:20:00,
2013-08-07 04:22:00,78.0,-99.9,-100.00,South,171,7.0,10.0,-999,-99.99,,,-99.99,,2013-08-07 11:22:00,
2013-08-07 04:32:00,78.0,-99.9,-100.00,South,171,7.0,10.0,-999,-99.99,,,-99.99,,2013-08-07 11:32:00,
2013-08-07 04:53:00,77.0,-99.9,-100.00,NNE,22,2.0,5.0,-999,-99.99,,,-99.99,,2013-08-07 11:53:00,
2013-08-07 05:02:00,77.0,-99.9,-100.00,NNE,22,2.0,5.0,-999,-99.99,,,-99.99,,2013-08-07 12:02:00,
2013-08-07 05:12:00,78.0,-99.9,-100.00,SSW,193,7.0,7.0,-999,-99.99,,,-99.99,,2013-08-07 12:12:00,
2013-08-07 05:20:00,76.0,-99.9,-100.00,SE,142,0.0,3.0,-999,-99.99,,,-99.99,,2013-08-07 12:20:00,
2013-08-07 06:12:00,76.0,-99.9,-100.00,SE,142,0.0,3.0,-999,-99.99,,,-99.99,,2013-08-07 13:12:00,
2013-08-07 08:20:00,82.0,-99.9,-100.00,SSW,205,7.0,8.0,-999,-99.99,,,-99.99,,2013-08-07 15:20:00,
2013-08-07 09:11:00,82.0,-99.9,-100.00,SSW,205,7.0,8.0,-999,-99.99,,,-99.99,,2013-08-07 16:11:00,
2013-08-07 09:53:00,87.0,-99.9,-100.00,SSW,199,2.0,5.0,-999,-99.99,,,-99.99,,2013-08-07 16:53:00,
2013-08-07 10:02:00,88.0,-99.9,-100.00,ENE,71,7.0,7.0,-999,-99.99,,,-99.99,,2013-08-07 17:02:00,
2013-08-07 10:10:00,90.0,-99.9,-100.00,NW,322,4.0,6.0,-999,-99.99,,,-99.99,,2013-08-07 17:10:00,
2013-08-07 10:11:00,88.0,-99.9,-100.00,ENE,71,7.0,7.0,-999,-99.99,,,-99.99,,2013-08-07 17:11:00,
2013-08-07 10:23:00,88.0,-99.9,-100.00,SW,231,3.0,6.0,-999,-99.99,,,-99.99,,2013-08-07 17:23:00,
2013-08-07 10:33:00,88.0,-99.9,-100.00,SW,231,3.0,6.0,-999,-99.99,,,-99.99,,2013-08-07 17:33:00,
2013-08-07 10:52:00,90.0,-99.9,-100.00,NW,322,4.0,6.0,-999,-99.99,,,-99.99,,2013-08-07 17:52:00,
2013-08-07 11:02:00,90.0,-99.9,-100.00,NW,322,4.0,6.0,-999,-99.99,,,-99.99,,2013-08-07 18:02:00,
2013-08-07 11:30:00,93.0,-99.9,-100.00,West,268,7.0,8.0,-999,-99.99,,,-99.99,,2013-08-07 18:30:00,
2013-08-07 12:11:00,93.0,-99.9,-100.00,West,268,7.0,8.0,-999,-99.99,,,-99.99,,2013-08-07 19:11:00,
2013-08-07 12:22:00,93.0,-99.9,-100.00,West,268,7.0,8.0,-999,-99.99,,,-99.99,,2013-08-07 19:22:00,
2013-08-07 12:53:00,94.0,-99.9,-100.00,NW,306,5.0,8.0,-999,-99.99,,,-99.99,,2013-08-07 19:53:00,
2013-08-07 13:02:00,94.0,-99.9,-100.00,NW,306,5.0,8.0,-999,-99.99,,,-99.99,,2013-08-07 20:02:00,
2013-08-07 13:40:00,97.0,-99.9,-100.00,NNE,15,9.0,15.0,-999,-99.99,,,-99.99,,2013-08-07 20:40:00,
2013-08-07 14:12:00,98.0,-99.9,-100.00,NW,305,10.0,10.0,-999,-99.99,,,-99.99,,2013-08-07 21:12:00,
2013-08-07 14:20:00,98.0,-99.9,-100.00,NNW,328,8.0,12.0,-999,-99.99,,,-99.99,,2013-08-07 21:20:00,
2013-08-07 14:22:00,98.0,-99.9,-100.00,NW,305,10.0,10.0,-999,-99.99,,,-99.99,,2013-08-07 21:22:00,
2013-08-07 15:12:00,98.0,-99.9,-100.00,NNW,328,8.0,12.0,-999,-99.99,,,-99.99,,2013-08-07 22:12:00,
2013-08-07 15:43:00,99.0,-99.9,-100.00,North,7,3.0,10.0,-999,-99.99,,,-99.99,,2013-08-07 22:43:00,
2013-08-07 15:50:00,100.0,-99.9,-100.00,WNW,291,10.0,10.0,-999,-99.99,,,-99.99,,2013-08-07 22:50:00,
2013-08-07 15:52:00,99.0,-99.9,-100.00,North,7,3.0,10.0,-999,-99.99,,,-99.99,,2013-08-07 22:52:00,
2013-08-07 16:11:00,100.0,-99.9,-100.00,WNW,295,8.0,10.0,-999,-99.99,,,-99.99,,2013-08-07 23:11:00,
2013-08-07 16:43:00,100.0,-99.9,-100.00,WNW,291,10.0,10.0,-999,-99.99,,,-99.99,,2013-08-07 23:43:00,
2013-08-07 17:30:00,101.0,-99.9,-100.00,NW,325,4.0,11.0,-999,-99.99,,,-99.99,,2013-08-08 00:30:00,
2013-08-07 17:53:00,100.0,-99.9,-100.00,WNW,283,6.0,8.0,-999,-99.99,,,-99.99,,2013-08-08 00:53:00,
2013-08-07 18:02:00,100.0,-99.9,-100.00,WNW,283,6.0,8.0,-999,-99.99,,,-99.99,,2013-08-08 01:02:00,
2013-08-07 18:22:00,101.0,-99.9,-100.00,NW,325,4.0,11.0,-999,-99.99,,,-99.99,,2013-08-08 01:22:00,
2013-08-07 19:02:00,100.0,-99.9,-100.00,NW,324,6.0,10.0,-999,-99.99,,,-99.99,,2013-08-08 02:02:00,
2013-08-07 19:11:00,100.0,-99.9,-100.00,NW,324,6.0,10.0,-999,-99.99,,,-99.99,,2013-08-08 02:11:00,
2013-08-07 19:40:00,98.0,-99.9,-100.00,NNW,346,6.0,6.0,-999,-99.99,,,-99.99,,2013-08-08 02:40:00,
2013-08-07 19:43:00,100.0,-99.9,-100.00,NNW,346,6.0,7.0,-999,-99.99,,,-99.99,,2013-08-08 02:43:00,
2013-08-07 19:53:00,100.0,-99.9,-100.00,NNW,346,6.0,7.0,-999,-99.99,,,-99.99,,2013-08-08 02:53:00,
2013-08-07 20:00:00,96.0,-99.9,-100.00,NNW,346,2.0,4.0,-999,-99.99,,,-99.99,,2013-08-08 03:00:00,
2013-08-07 20:22:00,98.0,-99.9,-100.00,NNW,346,6.0,6.0,-999,-99.99,,,-99.99,,2013-08-08 03:22:00,
2013-08-07 20:32:00,98.0,-99.9,-100.00,NNW,346,6.0,6.0,-999,-99.99,,,-99.99,,2013-08-08 03:32:00,
2013-08-07 20:52:00,96.0,-99.9,-100.00,NNW,346,2.0,4.0,-999,-99.99,,,-99.99,,2013-08-08 03:52:00,
2013-08-07 21:20:00,91.0,-99.9,-100.00,North,0,5.0,6.0,-999,-99.99,,,-99.99,,2013-08-08 04:20:00,
2013-08-07 22:10:00,89.0,-99.9,-100.00,WNW,288,7.0,7.0,-999,-99.99,,,-99.99,,2013-08-08 05:10:00,
2013-08-07 22:12:00,91.0,-99.9,-100.00,North,0,5.0,6.0,-999,-99.99,,,-99.99,,2013-08-08 05:12:00,
2013-08-07 22:30:00,89.0,-99.9,-100.00,NNW,333,2.0,6.0,-999,-99.99,,,-99.99,,2013-08-08 05:30:00,
2013-08-07 22:52:00,89.0,-99.9,-100.00,WNW,288,7.0,7.0,-999,-99.99,,,-99.99,,2013-08-08 05:52:00,
2013-08-07 23:01:00,89.0,-99.9,-100.00,WNW,288,7.0,7.0,-999,-99.99,,,-99.99,,2013-08-08 06:01:00,